Location: Jalan Sepang
(2.8072°N, 101.8021°E)
Time: 04:57:00
(UTC+00:00)

ATLAS 3B R/B - Pass Details

Date: 15 May 2026
Orbit: 937 x 1256 km, 63.8° (Epoch: 7 June)

Event Time Altitude Azimuth Distance (km) Brightness Sun altitude
Rises 14:07:31 0° 336° (NNW) 4,010 6.3 -40.3°
Reaches altitude 10° 14:10:18 10° 335° (NNW) 3,005 5.5 -40.9°
Enters shadow 14:13:45 31° 333° (NNW) 1,824 4.1 -41.7°
